This demonstration page uses our WeatherBlox Daily Observations layout. Learn more.

Left ArrowRight Arrow

39.12711, -84.51439

Hourly Observations for May 20, 2016

Temp ( °F °C ) Dew Point ( °F °C ) Humidity (%) Winds ( mph kmh ) Pressure ( in mb ) Visibility ( mi km ) Precip ( " mm )
12:53 am 00:53 Clear 48 8.9 47 8.3 96 96 NE 5 7 30.15 1021 10 16 0.00 0.00
1:53 am 01:53 Clear 48 8.9 46 7.8 93 93 NNE 7 11 30.15 1021 10 16 0.00 0.00
2:53 am 02:53 Clear 50 10 45 7.2 83 83 NNE 7 11 30.12 1020 10 16 0.00 0.00
3:53 am 03:53 Clear 49 9.4 46 7.8 90 90 NNE 5 7 30.14 1021 10 16 0.00 0.00
4:53 am 04:53 Clear 48 8.9 46 7.8 93 93 NNE 5 7 30.14 1021 10 16 0.00 0.00
5:53 am 05:53 Clear 49 9.4 46 7.8 90 90 N 3 6 30.14 1021 10 16 0.00 0.00
6:53 am 06:53 Partly Cloudy 49 9.4 46 7.8 90 90 Calm 30.14 1021 10 16 0.00 0.00
7:53 am 07:53 Mostly Sunny 52 11.1 49 9.4 89 89 Calm 30.16 1021 10 16 0.00 0.00
8:53 am 08:53 Sunny 57 13.9 49 9.4 74 74 NNE 3 6 30.15 1021 10 16 0.00 0.00
9:53 am 09:53 Sunny 60 15.6 48 8.9 65 65 NE 7 11 30.15 1021 10 16 0.00 0.00
10:53 am 10:53 Sunny 63 17.2 49 9.4 60 60 NE 9 15 30.13 1020 10 16 0.00 0.00
11:53 am 11:53 Sunny 67 19.4 52 11.1 59 59 ENE 7 11 30.10 1019 10 16 0.00 0.00
12:53 pm 12:53 Sunny 69 20.6 52 11.1 55 55 ENE 8 13 30.08 1019 10 16 0.00 0.00
1:53 pm 13:53 Sunny 69 20.6 53 11.7 57 57 VRB 5 7 30.06 1018 10 16 0.00 0.00
2:53 pm 14:53 Mostly Cloudy with Light Rain 68 20 54 12.2 61 61 ENE 6 9 30.06 1018 10 16 0.00 0.03
3:53 pm 15:53 Cloudy with Light Rain 64 17.8 60 15.6 87 87 ESE 3 6 30.06 1018 5 8 0.03 0.76
4:53 pm 16:53 Cloudy with Light Rain 63 17.2 59 15 87 87 Calm 30.05 1018 5 8 0.06 1.52
5:53 pm 17:53 Cloudy with Rain 61 16.1 60 15.6 97 97 N 3 6 30.05 1018 3 5 0.13 3.30
6:53 pm 18:53 Cloudy with Rain 60 15.6 60 15.6 100 100 NW 7 11 30.03 1017 3 5 0.20 5.08
7:53 pm 19:53 Cloudy with Light Rain 59 15 57 13.9 93 93 E 8 13 29.98 1015 7 11 0.01 0.25
8:53 pm 20:53 Mostly Cloudy 59 15 57 13.9 93 93 NNE 5 7 29.99 1016 10 16 0.00 0.03
9:53 pm 21:53 Cloudy 60 15.6 58 14.4 93 93 NNW 3 6 29.99 1016 10 16 0.00 0.00
10:21 pm 22:21 Cloudy with Light Rain 60 15.6 59 15 96 96 NNW 5 7 29.97 1015 6 10 0.01 0.25
10:44 pm 22:44 Cloudy with Light Rain 61 16 59 15 94 94 Calm 29.97 1015 5 8 0.00 0.00
10:53 pm 22:53 Cloudy with Light Rain 60 15.6 59 15 96 96 NNE 3 6 30.00 1016 5 8 0.05 1.27
11:53 pm 23:53 Cloudy with Light Rain 59 15 59 15 100 100 Calm 29.99 1016 6 10 0.02 0.51

Powered by AerisWeather